カタログに戻る

CAS500-4

運用中科学SSO
NORAD 69869·PAYLOAD·🇩🇪 Germany

打ち上げ Jul 7, 2026 から Vandenberg Space Force Base

Loading…

次のパス (今後24時間)

TLE

最新Source: Space-Track

元期: Sep 14, 2026, 15:26 UTC

1 69869U 26156A   26257.64317496  .00000283  00000-0  21884-3 0  9999
2 69869  98.9888 156.7039 0011933  13.4232 346.7248 14.00805456  9706

AllMySatでCAS500-4をリアルタイム追跡

Download on the App Store